NAYIF-1 (EO-88) (42017 NORAD) Tracking and Keplerian Element Data

This shows tracking and keplerian element data for the satellite.

Feedback or suggestion? Click here.




ElementValue
Catalog42017
NameNAYIF-1 (EO-88)
Epoch Orbit31268
Epoch Day270.1257321
Epoch Year2022
RAAN334.9107
Inclination97.2592
Eccentricity0.0003679
Argument of Perigee224.2819
Mean Anonmoly135.8132
Mean Motion15.37617442
Decay Rate0.00023018
L11 42017U 17008BX 22270.12573210 .00023018 00000+0 62440-3 0 9996
L22 42017 97.2592 334.9107 0003679 224.2819 135.8132 15.37617442312683

Live tracking and technical data element details for NAYIF-1 (EO-88) (NORAD 42017). NAYIF-1 (EO-88) can be tracked NOW for your location showing map with azimuth and elevation plus other details from your city location.

Track the satellite on the map from your city or location and see movement details for azimuth, elevation, latitude, longitude, range, height, and movement on the map or in text.







IsCatalogInMostPopularTable: catalog: 42017, numindb: 707
Update: records affected: 1



GetName: 42017 NAYIF-1 (EO-88)

Hit Count: updated at: Thu, 29 Sep 2022 11:22:41 GMT